Regional Weather Roundup
Issued by NWS Sioux Falls, SD

Home | Current Version | Previous Version | Text Only | Print | Product List | Glossary Off
Versions: 1 2 3 4 5 6 7 8 9 10 11 12 13 14 15 16 17 18 19 20 21 22 23 24 25 26 27 28 29 30 31 32 33 34 35 36 37 38 39 40 41 42 43 44 45 46 47 48 49 50

000
ASUS43 KFSD 180910
RWRFSD

WEATHER ROUNDUP FOR SE SOUTH DAKOTA/SW MINNESOTA/NW IOWA
NATIONAL WEATHER SERVICE SIOUX FALLS SD
400 AM CDT FRI APR 18 2014

NOTE: "FAIR" INDICATES FEW OR NO CLOUDS BELOW 12,000 FEET WITH NO
SIGNIFICANT WEATHER AND OR OBSTRUCTIONS TO VISIBILITY.


SDZ038>040-050-052>070-181000-
SOUTHEAST SOUTH DAKOTA

CITY           SKY/WX    TMP DP  RH WIND       PRES   REMARKS
CHAMBERLAIN      N/A     37  25  61 SE15      30.08F
HURON          CLOUDY    34  26  72 SE14G22   30.17F WCI  25
MADISON        FAIR      30  30 100 SE12      30.22S WCI  21
MITCHELL       PTCLDY    35  27  72 SE17      30.19F WCI  25
SIOUX FALLS    CLEAR     33  27  78 E9        30.24S WCI  25
WINNER         CLOUDY    45  28  51 S24G31    30.01F
YANKTON        CLEAR     32  25  74 E8        30.21F WCI  25
$$

MNZ071-072-080-081-089-090-097-098-181000-
SOUTHWEST MINNESOTA

CITY           SKY/WX    TMP DP  RH WIND       PRES   REMARKS
FAIRMONT       MOCLDY    28  27  93 CALM      30.31S
JACKSON        CLOUDY    32  28  86 E5        30.28S FOG     WCI  27
LUVERNE        CLOUDY    34  30  86 E6        30.26S WCI  29
MARSHALL       MOCLDY    34  25  69 S9        30.27S WCI  26
MONTEVIDEO     CLOUDY    30  27  86 SE3       30.29F
PIPESTONE      CLOUDY    32  28  86 SE8       30.23F WCI  25
REDWOOD FALLS  CLOUDY    31  27  85 S5        30.30R WCI  26
TRACY          CLOUDY    33  28  83 CALM      30.28S
WINDOM         CLOUDY    32  28  86 E3        30.29R
WORTHINGTON    MOCLDY    30  25  80 E6        30.28S WCI  24
$$

IAZ001>003-012>014-020>022-031-032-NEZ013-014-SDZ071-181000-
NORTHWEST IOWA

CITY           SKY/WX    TMP DP  RH WIND       PRES   REMARKS
CHEROKEE       CLEAR     30  28  90 CALM      30.27S
DENISON        MOCLDY    34  30  86 E6        30.26R WCI  29
ESTHERVILLE    MOCLDY    29  29 100 SE6       30.28S FOG     WCI  23
LE MARS        CLEAR     34  30  86 SE13G20   30.25S WCI  25
ORANGE CITY    CLEAR     34  27  75 E5        30.25S WCI  30
SHELDON        PTCLDY    30  28  93 E7        30.26R WCI  23
SIOUX CITY     CLEAR     30  25  81 SE8       30.25S WCI  22
SPENCER        PTCLDY    30  27  88 E8        30.28S WCI  22
STORM LAKE     CLEAR     28  28 100 SE8       30.27F WCI  20
$$

ABBREVIATIONS USED IN REMARKS
   TC - TEMPERATURE IN CELSIUS
  WCI - WIND CHILL INDEX
   HX - HEAT INDEX
  VSB - VISIBILITY




USA.gov is the U.S. government's official web portal to all federal, state and local government web resources and services.